ONEWEB-0038, 45145

Orbit data source: Space-Track

ONEWEB-0038, 45145 is a payload satellite owned by One Web (UK) in LEO that was launched on Thu, 06 Feb 2020 UTC via a SOYUZ-2-1B launch vehicle from the Tyuratam Missile And Space Complex (TTMTR). Payload-class satellites include a variety of spacecraft equipped with specific instruments for various scientific and technological missions. These include communications satellites like Starlink; space stations such as the ISS; scientific satellites like the Hubble; Earth observation satellites from companies like Planet Labs, Umbra, and HawkEye 360; GPS; miniature CubeSats for education and research; and military/defense satellites.

Loading next visibility...
Identifier
45145, 2020-008Q
Orbit
LEO
Country
Flag of UKUK
Related business
Manufacturer
One Web
Mission
Operational Commercial Communications
Bus & Motor
ARROW, Unknown motor
Mass
148 kg wet, ~140 kg dry
Launch date (UTC)
2020-02-06 (6 years ago)
Launch vehicle
SOYUZ-2-1B
Launch site
Tyuratam Missile And Space Complex (TTMTR)
Object type
Payload
Rocket body
Debris
Shape & HBR
Trap Box + 2 Pan, 6.7 m
Radar Cross Section
3.464 m², Large (>1 m²)

Expand to show TLE details & history
Last TLE update: 9 hours ago

TLE from 9 hours ago
0 ONEWEB-0038
1 45145U 20008Q   26035.10731494  .00000256  00000-0  68783-3 0  9992
2 45145  87.8820  47.5441 0000152  43.4185 316.6955 13.11414850292884
Epoch: 2026-02-04T02:34Z
TLE epoch observation values (Epoch: 2026-02-04T02:34:32.010Z)
Latitude
-0.00003°
Longitude
-125.36792°
Altitude
1,220.496 km
Speed
7.244 km/s
True Right ascension
03h 10m 10s
True Declination
0° 00' 00"
Sunlit
Object was in daylight at epoch
Visualization orbit readout
Latitude
Unknown
Longitude
Unknown
Altitude
Unknown
Speed
Unknown
Apparent Right ascension
Unknown
Apparent Declination
Unknown
Sunlit
N/A
Visualization observer readout
Local Sidereal Time
13:29:31
Azimuth
Unknown
Elevation
Unknown
Doppler factor
Unknown
Orbital elements
Apogee altitude
1,214.925 km
Perigee altitude
1,214.694 km
Semi-major axis
7,592.946 km
Eccentricity
0.00002
Inclination
87.882°
RAAN
47.5441°
Arg. of periapsis
43.4185°
True anomaly
316.69431°
Mean anomaly
316.6955°
Eccentric anomaly
316.6949°
Mean motion
3.28041 °/min
Orbital period
109.74 mins
BSTAR
0.00068783
Loading maneuver chart data...
Computing Atmospheric mass density...
Loading historical data...
Loading historical data...
Loading historical data...
Loading historical data...
Loading historical data...
Loading historical data...
Loading historical data...

Documentation

Showing up to 5 results
|